Zurück zum Katalog

BLOCK DM-SL R/B

AktivGTO
NORAD 29521·ROCKET BODY· XX

Gestartet Oct 30, 2006 von Sea Launch Platform

Loading…

TLE

AlterndSource: Space-Track

Epoche: Sep 14, 2026, 14:19 UTC

1 29521U 06049B   26257.59676777 -.00000130  00000-0  00000-0 0  9999
2 29521   0.9389  27.4534 6935319  97.3886 228.2071  2.18870474158896

Verfolge BLOCK DM-SL R/B in Echtzeit mit AllMySat

Download on the App Store